Location: Długosiodło
(52.7596°N, 21.5938°E)
Time: 22:41:53
(UTC+01:00)

ISS - Visible Passes

Search period start: 23 January 2019 00:00
Search period end: 02 February 2019 00:00
Orbit: 404 x 410 km, 51.6° (Epoch: 24 January)

Date Brightness Start Highest point End Pass type
(mag) Time Alt. Az. Time Alt. Az. Time Alt. Az.
23 Jan -1.1 18:40:35 10° SSW 18:41:05 13° SSW 18:41:05 13° SSW visible
24 Jan -1.8 17:50:01 10° S 17:52:03 16° SE 17:52:03 16° SE visible
25 Jan -1.3 17:00:23 10° SSE 17:01:01 10° SE 17:01:38 10° SE visible
25 Jan -2.1 18:33:46 10° SW 18:35:41 27° SSW 18:35:41 27° SSW visible
26 Jan -2.5 17:42:45 10° SSW 17:45:36 27° SSE 17:46:30 23° ESE visible
26 Jan -0.8 19:18:32 10° WSW 19:19:14 15° WSW 19:19:14 15° WSW visible
27 Jan -1.9 16:51:58 10° SSW 16:54:23 19° SE 16:56:48 10° E visible
27 Jan -3.1 18:27:14 10° WSW 18:30:00 49° SSW 18:30:00 49° SSW visible
28 Jan -3.1 17:35:59 10° SW 17:39:08 42° SSE 17:40:43 24° ESE visible
28 Jan -1.2 19:12:12 10° W 19:13:26 21° W 19:13:26 21° W visible
29 Jan -3.8 18:20:49 10° WSW 18:24:06 70° S 18:24:06 70° S visible
30 Jan -3.5 17:29:27 10° WSW 17:32:42 60° SSE 17:34:47 20° E visible
30 Jan -1.6 19:05:51 10° W 19:07:30 27° W 19:07:30 27° W visible
31 Jan -3.8 18:14:25 10° W 18:17:44 74° S 18:18:09 62° ESE visible
01 Feb -3.7 17:23:00 10° W 17:26:17 73° S 17:28:49 16° E visible
01 Feb -2.1 18:59:28 10° W 19:01:32 33° WSW 19:01:32 33° WSW visible
